www.pogodaiklimat.ru

Погода и климат >> Архив погоды >> Кувейт >> Sabriyah


ПОГОДА в Sabriyah

  • Прогноз погоды в Sabriyah
  • Монитор погоды в Sabriyah
  • Климат города

АРХИВ ПОГОДЫ в Sabriyah

Время (UTC), дата Ветер
(напр.,м/с)
 
Видим.   Явления Облачность Т
(С)
Тd
(С)
f
(%)
Тe
(С)
Тes
(С)
Комфортность P
(гПа)
Po
(гПа)
Тmin
(С)
Tmax
(С)
R
(мм)
R24
(мм)
S
(см)
00 7.12 0 н/о н/о
03 7.12 0 н/о н/о
06 7.12 ЮЗ 2-2 16 км н/о +16.6 +3.6 42 +17 +17 1016.3 1016.0
09 7.12 ЮЗ 3-5
{5}
17 км н/о +21.2 +8.0 43 +22 +22 комфорт 1015.1 1015.0
12 7.12 СЗ 2-3
{6}
19 км н/о +22.9 +9.6 43 +25 +25 комфорт 1014.0 1014.0
15 7.12 З 1-1
{4}
17 км н/о +20.1 +6.9 42 +22 +22 комфорт 1014.9 1015.0
18 7.12 ЮЗ 1-2
{4}
20 км н/о +17.3 +4.3 42 +18 +18 1016.3 1016.0
21 7.12 В 2 20 км н/о +16.4 +3.4 42 +17 +17 1015.9 1016.0
00 8.12 0
{4}
н/о н/о
03 8.12 0 н/о н/о
06 8.12 0 н/о н/о
09 8.12 ЮЗ 4-6 17 км н/о +23.2 +10.3 44 +25 +25 комфорт 1017.6 1018.0
12 8.12 ЮВ 5-6 18 км н/о +23.5 +10.6 44 +25 +25 комфорт 1016.5 1017.0
15 8.12 В 5-6
{9}
19 км н/о +19.0 +6.2 43 +19 +19 1017.9 1018.0
18 8.12 ЮВ 4-5
{9}
12 км н/о +17.1 +4.5 43 +17 +17 1019.1 1019.0
21 8.12 ЮВ 5 11 км н/о +16.3 +3.7 43 +16 +16 1018.8 1019.0
00 9.12 0
{6}
н/о н/о
03 9.12 0 н/о н/о
06 9.12 ЮВ 3-4 18 км н/о +19.7 +6.9 43 +21 +21 комфорт 1020.4 1020.0
09 9.12 Ю 2-4
{5}
16 км н/о +22.4 +9.5 44 +24 +24 комфорт 1019.1 1019.0
12 9.12 ЮЗ 1-1
{5}
20 км н/о +23.5 +10.5 44 +25 +25 комфорт 1018.0 1018.0
15 9.12 ЮВ 3-3
{4}
20 км н/о +20.4 +7.5 43 +22 +22 комфорт 1018.4 1018.0
18 9.12 СВ 2-2
{4}
20 км н/о +18.3 +5.5 43 +19 +19 1019.5 1020.0
21 9.12 0 н/о н/о
00 10.12 0 н/о н/о
03 10.12 0 н/о н/о
06 10.12 СЗ 2-3 10 км н/о +17.3 +4.6 43 +18 +18 1019.6 1020.0
09 10.12 С 1-3
{4}
18 км н/о +21.5 +8.6 44 +23 +23 комфорт 1017.8 1018.0
12 10.12 СЗ 2-3
{4}
18 км н/о +22.3 +9.4 44 +24 +24 комфорт 1016.9 1017.0
15 10.12 С 3-3
{4}
15 км н/о +19.5 +6.7 43 +21 +21 комфорт 1018.4 1018.0
18 10.12 СЗ 3-3
{4}
18 км н/о +16.5 +3.7 42 +16 +16 1019.5 1020.0
21 10.12 С 2 16 км н/о +14.9 +2.2 42 +15 +15 1019.5 1020.0
00 11.12 0 н/о н/о
03 11.12 0 н/о н/о
06 11.12 СЗ 4-5 7000 м н/о +14.9 +1.9 41 +14 +14 1022.7 1023.0
09 11.12 СЗ 5-7
{8}
18 км слаб. ливневой дождь н/о +20.2 +6.9 42 +21 +21 комфорт 1021.2 1021.0
12 11.12 С 6-8
{8}
19 км н/о +21.8 +8.5 42 +23 +23 комфорт 1020.1 1020.0
15 11.12 С 3-4
{8}
20 км н/о +17.5 +4.3 42 +18 +18 1021.0 1021.0
18 11.12 С 3-3
{8}
16 км н/о +14.0 +1.0 41 +13 +13 1021.9 1022.0
21 11.12 З 3 10 км н/о +12.0 -0.9 41 +11 +11 1022.0 1022.0
00 12.12 СЗ 3-3
{4}
7000 м дымка н/о +11.0 -1.8 41 +10 +10 1021.8 1022.0
03 12.12 СЗ 3-3
{4}
3500 м дымка н/о +9.9 -2.9 40 +9 +9 1022.3 1022.0
06 12.12 З 3-3
{4}
12 км н/о +14.0 +1.0 41 +13 +13 1023.5 1024.0
09 12.12 СЗ 4-6
{6}
19 км н/о +20.5 +7.2 42 +22 +22 комфорт 1021.3 1021.0
12 12.12 С 5-6
{7}
20 км н/о +21.5 +8.2 42 +23 +23 комфорт 1020.3 1020.0
15 12.12 СВ 3-3
{6}
20 км н/о +17.2 +4.0 41 +17 +17 1020.8 1021.0
18 12.12 ЮЗ 3-3
{6}
15 км н/о +13.6 +0.6 41 +13 +13 1021.2 1021.0
21 12.12 ЮЗ 2 14 км н/о +12.8 -0.2 41 +13 +13 1021.1 1021.0 +9.7 +21.9
00 13.12 З 1-1
{3}
8000 м дымка н/о +11.4 -1.4 41 +13 +13 1021.1 1021.0
03 13.12 ЮЗ 1-1
{3}
7000 м дымка н/о +10.7 -2.1 41 +12 +12 1021.9 1022.0
06 13.12 З 1-1
{3}
9000 м дымка н/о +15.8 +2.7 41 +17 +17 1023.6 1024.0
09 13.12 В 1-2
{3}
16 км н/о +21.5 +8.1 42 +23 +23 комфорт 1021.9 1022.0
12 13.12 В 4-5
{5}
20 км н/о +21.7 +8.4 42 +23 +23 комфорт 1020.8 1021.0
15 13.12 Ю 1-2
{6}
16 км н/о +17.6 +4.4 42 +19 +19 1022.0 1022.0
18 13.12 ЮЗ 3-3
{6}
7000 м дымка н/о +14.8 +1.8 41 +14 +14 1023.1 1023.0
21 13.12 З 2 5000 м дымка н/о +14.0 +1.0 41 +14 +14 1022.7 1023.0 +10.1 +22.1

 

Местоположение метеостанции Sabriyah (Кувейт): широта 29.75 долгота 47.85 высота над уровнем моря 56 м.

В архиве по умолчанию представлена погода в Sabriyah за последнюю неделю. Архивные данные за месяц целиком и за предыдущие месяцы, начиная с января 2011 года, Вы можете получить, выбрав интересующий диапазон дат из раскрывающегося списка и нажав кнопку "Ввод!".


*Определитесь, кто Вы:
робот инопланетянин человек

Внимание! Время в таблицах - всемирное. Для получения местного времени необходимо прибавить поправку, которая в Sabriyah равна 3 ч.

Смотрите также архив погоды в соседних городах и на ближайших метеорологических станциях:

Погода в Jal Aliyah (Кувейт) (30 км)
Погода в Abdaly (Кувейт) (39 км)
Погода в Mitribah (Кувейт) (47 км)
Погода в Kuwait City (Кувейт) (51 км)
Погода в Al-Shuaiba (Кувейт) (51 км)
Погода в Jahra (Кувейт) (51 км)
Погода в Bubiyan (Кувейт) (51 км)
Погода в Experimental Farm (Кувейт) (52 км)
Погода в Failaka Island (Кувейт) (52 км)
Погода в Sulaibiya (Кувейт) (55 км)

Пояснения к столбцам:

Ветер - указаны скорость ветра в м/с - средняя за 10 мин, порывы в срок и между сроками (в фигурных скобках) и направление, откуда дует ветер: С - северный, СВ - северо-восточный, В - восточный, ЮВ - юго-восточный, Ю - южный, ЮЗ - юго-западный, З - западный, СЗ - северо-западный.
Видимость - горизонтальная дальность видимости в метрах или километрах. При видимости от 1 до 10 км при отсутствии осадков обычно наблюдается дымка, при ухудшении видимости до 1 км и менее - туман. В сухую погоду видимость может ухудшаться дымом, пылью или мглою.
Явления - указаны атмосферные явления, наблюдавшиеся в срок или в последний час перед сроком; фигурными скобками обозначены явления, наблюдавшиеся между сроками (за 1-3 часа до срока); квадратными скобками обозначены град или гололедные отложения с указанием их диаметра в мм.
Облачность - указаны через наклонную черту общая и нижняя облачность в баллах и высота нижней границы облаков в метрах; квадратными скобками обозначены формы облаков: Ci - перистые, Cs - перисто-слоистые, Cc - перисто-кучевые, Ac - высококучевые, As - высокослоистые, Sc - слоисто-кучевые, Ns - слоисто-дождевые, Cu - кучевые, Cb - кучево-дождевые. Подробнее классификацию облаков см. в Атласе облаков (PDF).
T - Температура воздуха - температура, измеренная на высоте 2 м над землей.
Td - Температура точки росы - температура, при понижении до которой содержащийся в воздухе водяной пар достигнет насыщения.
f - Относительная влажность воздуха - влажноcть воздуха, измеренная на высоте 2 м над землей.
Te - Эффективная температура - температура, которую ощущает одетый по сезону человек в тени. Характеристика душности погоды. При расчете учитывается влияние влажности воздуха и скорости ветра на теплоощущения человека.
Tes - Эффективная температура на солнце - температура, которую ощущает человек, с поправкой на солнечный нагрев. Характеристика знойности погоды. Зависит от высоты солнца над горизонтом, облачности и скорости ветра. Ночью, в пасмурную погоду, а также при ветре 12 м/с и более поправка равна нулю.
P - Атмосферное давление - приведенное к уровню моря атмосферное давление.
Po - Атмосферное давление - измеренное на уровне метеостанции атмосферное давление.
Tmin - Минимальная температура - минимум температуры воздуха на высоте 2 м над землей.
Tmax - Максимальная температура - максимум температуры воздуха на высоте 2 м над землей.
R - Количество осадков - Количество выпавших осадков за период времени, мм. При наведении курсора мыши на число - период времени, за который выпало указанное количество осадков.
R24 - Количество осадков - Количество выпавших осадков за 24 часа, мм.
S - Снежный покров - Высота снежного покрова, см. При наведении курсора мыши на число - состояние снежного покрова и степень покрытия местности в баллах.